Starlink 36706

operational
NORAD ID: 67657 Int'l Des: 2026-022 Owner: SPXS Country: US Constellation: starlink
LEOCIRCULARRETROGRADE

About Starlink 36706

Description loading...

Live Position

Loading 3D Globe...

Upcoming Passes

Altitude History

Altitude vs Time

uPlot chart will show altitude changes over time

Two-Line Element Set

1 67657U 26022K 26066.04746022 .00241908 00000-0 15740-2 0 9991
2 67657 97.2823 99.9026 0000276 145.4136 214.7147 15.75236842 5136
Epoch: Mar 7, 2026 • Age: 15 hours

Current Status

Altitude 371.5 km
Velocity 7.69 km/s
Sub-Earth Point -79.89°S, 123.02°E
Launch Date Feb 2, 2026
Age 32 days
Type internet

Technical Details

Classification Payload
Mass 575.00 kg
Dry Mass 530.00 kg
Total Mass 575.00 kg
Length 0.30 m
Diameter 4.10 m
Span 29.00 m
Shape Box + pan
Manufacturer SPXS
Bus Type Starlink V2MO
Phase Status In Orbit
Owner/State SPXS/US

Large Constellations

Loading constellations...